Regional Weather Roundup
Issued by NWS

Home | Current Version | Previous Version | Graphics & Text | Print | Product List | Glossary On
Versions: 1 2 3 4 5 6 7 8 9 10 11 12 13 14 15 16 17 18 19 20 21 22 23 24 25 26 27 28 29 30 31 32 33 34 35 36 37 38 39 40 41 42 43 44 45 46 47 48 49 50
000
ASUS43 KLOT 292312
RWRIL

ILLINOIS REGIONAL WEATHER ROUNDUP
NATIONAL WEATHER SERVICE CHICAGO/ROMEOVILLE IL
600 PM CDT SAT AUG 29 2015

NOTE: "FAIR" INDICATES FEW OR NO CLOUDS BELOW 12,000 FEET WITH NO
SIGNIFICANT WEATHER AND/OR OBSTRUCTIONS TO VISIBILITY.

* THESE STATIONS ARE NOT UNDER NWS QUALITY CONTROL. THEY ALSO MAY NOT
  REPORT WEATHER SUCH AS PRECIPITATION OR FOG.

ILZ001-002-007-009-015-016-024-300000-
NORTHWEST ILLINOIS

CITY           SKY/WX    TMP DP  RH WIND       PRES   REMARKS
MOLINE         CLOUDY    73  67  81 NE6       30.00R
STERLING*      CLOUDY    72  66  83 N5        29.99S
SAVANNA*       CLOUDY    73  64  74 CALM      30.01R
$$

ILZ003-004-008-010-011-017-018-300000-
NORTH CENTRAL ILLINOIS

CITY           SKY/WX    TMP DP  RH WIND       PRES   REMARKS
ROCKFORD       CLOUDY    72  64  76 N5        30.02S
FREEPORT*      CLOUDY    69  64  83 N3        30.03S
ROCHELLE*      CLOUDY    70  66  87 N6        30.01S
DE KALB*       CLOUDY    69  66  90 N5        30.02R
PERU*          CLOUDY    73  66  78 N3        30.00R
$$

ILZ005-006-012>014-019>023-300000-
NORTHEAST ILLINOIS

CITY           SKY/WX    TMP DP  RH WIND       PRES   REMARKS
CHICAGO-OHARE  LGT RAIN  69  67  93 NE5       30.00S FOG
CHICAGO-MIDWAY LGT RAIN  72  67  84 VRB3      29.99F
AURORA         LGT RAIN  70  68  93 CALM      30.01R FOG
LANSING*       CLOUDY    74  68  81 S3        30.00S
JOLIET*        CLOUDY    74  70  85 N6        29.99S
WAUKEGAN       CLOUDY    67  65  93 CALM      30.01R FOG
DUPAGE AIRPORT LGT RAIN  70  66  87 CALM      30.00S FOG
KANKAKEE*      CLOUDY    74  72  92 CALM      30.01R
WHEELING       LGT RAIN  70  65  84 CALM      30.01S
MORRIS*        CLOUDY    72  67  86 CALM      29.99R
ROMEOVILLE*    RAIN      71  67  85 NW5       30.00S
NORTHERLY ISL    N/A     66  63  90 NW1         N/A
$$

LMZ740>746-300000-
SOUTHERN LAKE MICHIGAN

STATION/POSITION SKY/WX   TEMP    WIND        PRES    VSBY  WAVE
                          AIR SEA DIR/SP/G                  HT/PER
                          (F)     (DEG/KT/KT) (MB)    (MI)  (FT/S)
SOUTHERN BUOY              68 69  110/ 10/ 10 1015.9F         2/ 3
WILMETTE HARBOR            58 55  110/  2/  6   N/A           2/ 4
HARRISON CRIB              66      10/  5/  6   N/A
BURNHAM HARBOR             65      CALM  /  5   N/A
BURNS HARBOR               73     180/  5/  8 1016.3S
MICHIGAN CITY              71     110/  5/  6   N/A
MICHIGAN CITY 6N           71 71  150/  4/  6   N/A           0
ST. JOSEPH                 69 70  140/  4/  6   N/A           1
$$

ILZ025>027-034>036-040-047-049-050-058-095>099-300000-
WEST-CENTRAL ILLINOIS

CITY           SKY/WX    TMP DP  RH WIND       PRES   REMARKS
QUINCY         CLOUDY    78  68  71 CALM      29.99R HX  80
GALESBURG*     CLOUDY    76  68  77 CALM      29.99S
MACOMB*        CLOUDY    77  69  75 W3        30.01R
JACKSONVILLE*  PTSUNNY   82  70  66 S7        29.98R HX  86
PITTSFIELD*    CLOUDY    80  69  69 CALM      30.00R HX  83
$$

ILZ028>032-037-038-041>044-048-051>054-059>061-300000-
CENTRAL ILLINOIS

CITY           SKY/WX    TMP DP  RH WIND       PRES   REMARKS
PONTIAC        CLOUDY    78  69  74 S6        30.00R HX  80
BLOOMINGTON    CLOUDY    77  68  73 SW7       30.01S
DECATUR        CLOUDY    79  66  64 SW9       30.00S HX  81
PEORIA         PTSUNNY   81  68  64 CALM      29.98S HX  84
LACON*         MOSUNNY   76  68  77 N3        29.98R
LINCOLN*       CLOUDY    80  67  63 S6        29.98S HX  82
SPRINGFIELD    PTSUNNY   81  66  60 SW7       29.98F HX  83
TAYLORVILLE    CLOUDY    77  68  73 S6        30.00S
$$

ILZ033-039-045-046-055>057-062-063-300000-
EAST-CENTRAL ILLINOIS

CITY           SKY/WX    TMP DP  RH WIND       PRES   REMARKS
CHAMPAIGN      CLOUDY    76  67  73 SW5       30.01R
RANTOUL*       RAIN      73  70  91 CALM      30.00S
MATTOON        CLOUDY    77  65  66 S6        30.01S
PARIS*         CLOUDY    78  69  75 S3        30.02S
$$

ILZ079-100>102-300000-
SOUTHWEST ILLINOIS

CITY           SKY/WX    TMP DP  RH WIND       PRES   REMARKS
ALTON          MOSUNNY   79  68  69 S6        30.00R HX  81
BELLEVILLE     CLOUDY    77  70  78 CALM      29.98F
CAHOKIA*       CLOUDY    82  67  60 S5        29.99R HX  84
SPARTA*        CLOUDY    75  68  78 S3        30.01S
$$

ILZ064>066-069>071-074>076-080>082-084>086-088>090-092>094-300000-
SOUTH-CENTRAL ILLINOIS

CITY           SKY/WX    TMP DP  RH WIND       PRES   REMARKS
CARBONDALE     CLOUDY    78  69  73 W3        30.00S HX  80
CAIRO*         CLOUDY    80  74  80 CALM      30.00F HX  85
EFFINGHAM*     CLOUDY    77  65  67 S3        30.03R
MARION         CLOUDY    81  72  74 S9        30.01F HX  84
MT. VERNON     CLOUDY    73  66  78 CALM      30.02R
SALEM*         CLOUDY    78  67  69 S6        30.01S HX  80
METROPOLIS*    PTSUNNY   83  71  66 CALM      30.01S HX  87
$$

ILZ067-068-072-073-078-083-087-091-300000-
SOUTHEAST ILLINOIS

CITY           SKY/WX    TMP DP  RH WIND       PRES   REMARKS
LAWRENCEVILLE  CLOUDY    79  67  66 SW3       30.02S HX  81
FLORA*         CLOUDY    76  68  74 CALM      30.02R
FAIRFIELD*     CLOUDY    76  69  80 CALM      30.00F
HARRISBURG*    PTSUNNY   82  68  63 CALM      30.00F HX  85
ROBINSON*      CLOUDY    78  68  70 S3        30.02F HX  81
CARMI*         CLOUDY    79  69  70 W3        30.00F HX  82
$$

ABBREVIATIONS USED IN REMARKS
   TC - TEMPERATURE IN CELSIUS
  WCI - WIND CHILL INDEX
   HX - HEAT INDEX
  VSB - VISIBILITY
$$




USA.gov is the U.S. government's official web portal to all federal, state and local government web resources and services.